{"data":{"norad_id":32785,"epoch":"2026-05-25T04:16:01.449984Z","epoch_age_seconds":49786,"freshness":"FRESH","line1":"1 32785U 08021C   26145.17779456  .00004510  00000+0  28765-3 0  9990","line2":"2 32785  97.8262 126.1242 0010640 104.7166 255.5242 15.09192180981723","mean_motion":15.0919218,"eccentricity":0.001064,"inclination_deg":97.8262,"raan_deg":126.1242,"arg_perigee_deg":104.7166,"mean_anomaly_deg":255.5242,"bstar":0.00028765,"rev_number":98172,"period_min":95.415283691703,"perigee_km":531.30764534753,"apogee_km":546.0266045254,"semimajor_km":6916.8041249365,"source":"CELESTRAK","updated_at":"2026-05-25T13:38:25.486628Z"}}